| time (UTC) | temp F | wind direction | speed MPH | gust MPH | rain 1hr in | rain 24hr in | rain mn in | humidity % | barometer mb |
| 20260505053522 | 55 | 285 | 3.0 | 6.0 | 0.00 | 0.00 | 0.00 | 65 | 1013.5 |
| 20260505052620 | 55 | 294 | 4.0 | 8.0 | 0.00 | 0.00 | 0.00 | 65 | 1013.3 |
| 20260505051621 | 55 | 288 | 3.0 | 7.0 | 0.00 | 0.00 | 0.00 | 64 | 1013.3 |
| 20260505050622 | 56 | 267 | 2.0 | 7.0 | 0.00 | 0.00 | 0.00 | 63 | 1013.5 |
| 20260505041620 | 56 | 247 | 0.0 | 1.0 | 0.00 | 0.00 | 0.00 | 60 | 1013.5 |
| 20260505040621 | 56 | 264 | 3.0 | 7.0 | 0.00 | 0.00 | 0.00 | 60 | 1013.5 |
| 20260505035707 | 57 | 252 | 1.0 | 6.0 | 0.00 | 0.00 | 0.00 | 59 | 1013.5 |
| 20260505032806 | 57 | 242 | 4.0 | 10.0 | 0.00 | 0.00 | 0.00 | 55 | 1013.3 |
| 20260505032706 | 57 | 241 | 7.0 | 13.0 | 0.00 | 0.00 | 0.00 | 55 | 1013.3 |
| 20260505031806 | 58 | 234 | 4.0 | 8.0 | 0.00 | 0.00 | 0.00 | 56 | 1013.4 |
| 20260505025709 | 58 | 244 | 2.0 | 8.0 | 0.00 | 0.00 | 0.00 | 53 | 1013.5 |
| 20260505022805 | 58 | 247 | 0.0 | 4.0 | 0.00 | 0.00 | 0.00 | 50 | 1013.5 |
| 20260505015808 | 59 | 252 | 4.0 | 13.0 | 0.00 | 0.00 | 0.00 | 49 | 1013.4 |
| 20260505014808 | 59 | 249 | 3.0 | 10.0 | 0.00 | 0.00 | 0.00 | 49 | 1013.3 |
| 20260505013906 | 59 | 230 | 3.0 | 9.0 | 0.00 | 0.00 | 0.00 | 48 | 1013.3 |
| 20260505012006 | 60 | 256 | 2.0 | 10.0 | 0.00 | 0.00 | 0.00 | 47 | 1012.9 |
| 20260505011008 | 60 | 240 | 4.0 | 10.0 | 0.00 | 0.00 | 0.00 | 46 | 1012.7 |
| 20260505010107 | 61 | 261 | 1.0 | 6.0 | 0.00 | 0.00 | 0.00 | 46 | 1012.8 |
| 20260505004108 | 62 | 250 | 1.0 | 8.0 | 0.00 | 0.00 | 0.00 | 44 | 1012.4 |
| 20260505003205 | 62 | 237 | 8.0 | 13.0 | 0.00 | 0.00 | 0.00 | 43 | 1012.3 |
| 20260505002206 | 63 | 240 | 6.0 | 13.0 | 0.00 | 0.00 | 0.00 | 41 | 1011.8 |
| 20260505002108 | 63 | 234 | 1.0 | 9.0 | 0.00 | 0.00 | 0.00 | 42 | 1011.8 |
| 20260505001106 | 63 | 230 | 6.0 | 14.0 | 0.00 | 0.00 | 0.00 | 42 | 1011.4 |
| 20260505000122 | 64 | 222 | 4.0 | 11.0 | 0.00 | 0.00 | 0.00 | 40 | 1011.2 |
| 20260504235207 | 64 | 258 | 4.0 | 9.0 | 0.00 | 0.00 | 0.00 | 41 | 1011.0 |
| 20260504234205 | 65 | 249 | 8.0 | 13.0 | 0.00 | 0.00 | 0.00 | 40 | 1010.9 |
| 20260504231208 | 66 | 269 | 6.0 | 12.0 | 0.00 | 0.00 | 0.00 | 37 | 1010.3 |
| 20260504230306 | 66 | 237 | 3.0 | 12.0 | 0.00 | 0.00 | 0.00 | 37 | 1010.1 |
| 20260504223308 | 68 | 279 | 12.0 | 17.0 | 0.00 | 0.00 | 0.00 | 34 | 1009.6 |
| 20260504221408 | 70 | 224 | 3.0 | 12.0 | 0.00 | 0.00 | 0.00 | 29 | 1009.5 |
| 20260504220506 | 71 | 280 | 6.0 | 12.0 | 0.00 | 0.00 | 0.00 | 29 | 1009.3 |
| 20260504215605 | 71 | 269 | 7.0 | 15.0 | 0.00 | 0.00 | 0.00 | 27 | 1009.3 |
| 20260504214607 | 71 | 280 | 8.0 | 14.0 | 0.00 | 0.00 | 0.00 | 27 | 1009.3 |
| 20260504213705 | 71 | 272 | 7.0 | 12.0 | 0.00 | 0.00 | 0.00 | 28 | 1009.2 |
| 20260504212709 | 71 | 282 | 4.0 | 11.0 | 0.00 | 0.00 | 0.00 | 28 | 1009.3 |
| 20260504211707 | 72 | 248 | 4.0 | 14.0 | 0.00 | 0.00 | 0.00 | 27 | 1009.3 |
| 20260504210708 | 72 | 289 | 9.0 | 14.0 | 0.00 | 0.00 | 0.00 | 26 | 1009.3 |
| 20260504205707 | 72 | 259 | 2.0 | 7.0 | 0.00 | 0.00 | 0.00 | 27 | 1009.3 |
| 20260504204706 | 71 | 278 | 6.0 | 13.0 | 0.00 | 0.00 | 0.00 | 27 | 1009.2 |
| 20260504203706 | 71 | 284 | 9.0 | 20.0 | 0.00 | 0.00 | 0.00 | 26 | 1009.3 |
| 20260504202726 | 72 | 285 | 8.0 | 13.0 | 0.00 | 0.00 | 0.00 | 26 | 1009.2 |
| 20260504201728 | 71 | 293 | 7.0 | 10.0 | 0.00 | 0.00 | 0.00 | 25 | 1009.2 |
| 20260504200728 | 72 | 286 | 9.0 | 15.0 | 0.00 | 0.00 | 0.00 | 25 | 1009.5 |
| 20260504200626 | 72 | 292 | 11.0 | 25.0 | 0.00 | 0.00 | 0.00 | 25 | 1009.3 |
| 20260504195627 | 71 | 281 | 8.0 | 13.0 | 0.00 | 0.00 | 0.00 | 24 | 1009.6 |
| 20260504194726 | 71 | 282 | 11.0 | 21.0 | 0.00 | 0.00 | 0.00 | 24 | 1009.4 |
| 20260504193729 | 71 | 283 | 8.0 | 12.0 | 0.00 | 0.00 | 0.00 | 25 | 1009.6 |
| 20260504193626 | 71 | 279 | 9.0 | 15.0 | 0.00 | 0.00 | 0.00 | 25 | 1009.7 |
| 20260504192626 | 71 | 291 | 13.0 | 19.0 | 0.00 | 0.00 | 0.00 | 24 | 1008.8 |
| 20260504191627 | 71 | 299 | 5.0 | 12.0 | 0.00 | 0.00 | 0.00 | 25 | 1009.5 |
| 20260504190628 | 71 | 264 | 7.0 | 14.0 | 0.00 | 0.00 | 0.00 | 25 | 1009.4 |
| 20260504185628 | 71 | 282 | 5.0 | 9.0 | 0.00 | 0.00 | 0.00 | 24 | 1009.6 |
| 20260504184625 | 70 | 261 | 8.0 | 14.0 | 0.00 | 0.00 | 0.00 | 26 | 1009.4 |
| 20260504183627 | 70 | 267 | 7.0 | 13.0 | 0.00 | 0.00 | 0.00 | 25 | 1009.8 |
| 20260504182628 | 70 | 296 | 12.0 | 17.0 | 0.00 | 0.00 | 0.00 | 26 | 1009.9 |
| 20260504181627 | 69 | 254 | 10.0 | 16.0 | 0.00 | 0.00 | 0.00 | 26 | 1010.2 |
| 20260504180626 | 69 | 291 | 14.0 | 21.0 | 0.00 | 0.00 | 0.00 | 27 | 1009.8 |
| 20260504175628 | 69 | 287 | 7.0 | 13.0 | 0.00 | 0.00 | 0.00 | 27 | 1010.2 |
| 20260504174626 | 69 | 287 | 8.0 | 13.0 | 0.00 | 0.00 | 0.00 | 27 | 1010.2 |
| 20260504171626 | 68 | 294 | 13.0 | 19.0 | 0.00 | 0.00 | 0.00 | 27 | 1010.3 |
| 20260504170725 | 68 | 259 | 7.0 | 12.0 | 0.00 | 0.00 | 0.00 | 28 | 1010.3 |
| 20260504150825 | 65 | 261 | 7.0 | 12.0 | 0.00 | 0.00 | 0.00 | 32 | 1011.7 |
| 20260504141026 | 63 | 296 | 6.0 | 9.0 | 0.00 | 0.00 | 0.00 | 35 | 1012.4 |
| 20260504140927 | 63 | 296 | 6.0 | 10.0 | 0.00 | 0.00 | 0.00 | 35 | 1012.4 |
| 20260504130125 | 58 | 284 | 7.0 | 11.0 | 0.00 | 0.00 | 0.00 | 40 | 1013.2 |
| 20260504120226 | 54 | 282 | 6.0 | 13.0 | 0.00 | 0.00 | 0.00 | 43 | 1013.5 |
| 20260504100426 | 48 | 293 | 2.0 | 7.0 | 0.00 | 0.00 | 0.00 | 47 | 1013.6 |
| 20260504081625 | 48 | 289 | 1.0 | 3.0 | 0.00 | 0.00 | 0.00 | 49 | 1013.4 |